When you browse on this site, cookies collect data to enhance your experience and personalize the content and advertising you see.
Visit our Privacy Policy to learn more. By continuing to use the site, you agree to this use of cookies and data.
  • In United Kingdom
  • List of Countries
  • For 7 days
  • Water Temperature
  • Satellite Maps
  • Weather Map
  • Weather Widgets
  • user-avatar
    Login

    Hourly Weather Nyiregyhaza

    Today, 25 June, Tuesday

    Time Temperature Precipitation Wind Pressure Humidity
    00:00 +20°C° 0.2 mm 4 mps 757 mmHg 90%
    01:00 +19°C° 0.2 mm 3 mps 757 mmHg 91%
    02:00 +19°C° 0 mm 3 mps 757 mmHg 92%
    03:00 +19°C° 0 mm 3 mps 757 mmHg 92%
    04:00 +19°C° 0 mm 3 mps 757 mmHg 92%
    05:00 +20°C° 0 mm 3 mps 757 mmHg 89%
    06:00 +21°C° 0 mm 3 mps 757 mmHg 86%
    07:00 +24°C° 0 mm 3 mps 758 mmHg 83%
    08:00 +25°C° 0 mm 3 mps 758 mmHg 77%
    09:00 +27°C° 0 mm 3 mps 758 mmHg 72%
    10:00 +28°C° 0 mm 3 mps 758 mmHg 66%
    11:00 +29°C° 0 mm 3 mps 758 mmHg 63%
    12:00 +30°C° 0 mm 3 mps 758 mmHg 59%
    13:00 +31°C° 0 mm 3 mps 758 mmHg 56%
    14:00 +31°C° 0 mm 2 mps 757 mmHg 56%
    15:00 +31°C° 0 mm 2 mps 757 mmHg 56%
    16:00 +31°C° 0 mm 2 mps 757 mmHg 55%
    17:00 +30°C° 0 mm 1 mps 757 mmHg 60%
    18:00 +29°C° 0 mm 1 mps 757 mmHg 64%
    19:00 +27°C° 0 mm 1 mps 758 mmHg 68%
    20:00 +26°C° 0 mm 1 mps 758 mmHg 70%
    21:00 +25°C° 0 mm 1 mps 758 mmHg 71%
    22:00 +25°C° 0 mm 1 mps 758 mmHg 73%
    23:00 +24°C° 0 mm 1 mps 758 mmHg 76%

    Tomorrow, 26 June, Wednesday

    Time Temperature Precipitation Wind Pressure Humidity
    00:00 +23°C° 0 mm 1 mps 758 mmHg 79%
    01:00 +23°C° 0 mm 1 mps 759 mmHg 82%
    02:00 +21°C° 0 mm 2 mps 758 mmHg 85%
    03:00 +21°C° 0 mm 2 mps 758 mmHg 88%
    04:00 +20°C° 0 mm 2 mps 758 mmHg 92%
    05:00 +23°C° 0 mm 2 mps 758 mmHg 87%
    06:00 +24°C° 0 mm 2 mps 758 mmHg 82%
    07:00 +26°C° 0 mm 2 mps 758 mmHg 77%
    08:00 +27°C° 0 mm 2 mps 758 mmHg 73%
    09:00 +28°C° 0 mm 1 mps 758 mmHg 68%
    10:00 +30°C° 0 mm 1 mps 758 mmHg 63%
    11:00 +31°C° 0 mm 1 mps 758 mmHg 59%
    12:00 +32°C° 0 mm 1 mps 758 mmHg 55%
    13:00 +33°C° 0 mm 1 mps 758 mmHg 52%
    14:00 +33°C° 0 mm 1 mps 757 mmHg 50%
    15:00 +33°C° 0 mm 1 mps 757 mmHg 48%
    16:00 +33°C° 0 mm 1 mps 756 mmHg 46%
    17:00 +31°C° 0 mm 1 mps 756 mmHg 51%
    18:00 +30°C° 0 mm 1 mps 756 mmHg 56%
    19:00 +28°C° 0 mm 1 mps 756 mmHg 62%
    20:00 +27°C° 0 mm 1 mps 756 mmHg 64%
    21:00 +26°C° 0 mm 1 mps 756 mmHg 65%
    22:00 +25°C° 0 mm 2 mps 756 mmHg 67%
    23:00 +25°C° 0 mm 2 mps 756 mmHg 69%

    Day after tomorrow, 27 June, Thursday

    Time Temperature Precipitation Wind Pressure Humidity
    00:00 +24°C° 0 mm 2 mps 756 mmHg 72%
    01:00 +24°C° 0 mm 2 mps 755 mmHg 74%
    02:00 +24°C° 0 mm 2 mps 755 mmHg 76%
    03:00 +23°C° 0 mm 2 mps 755 mmHg 79%
    04:00 +23°C° 0 mm 2 mps 754 mmHg 81%
    05:00 +24°C° 0 mm 2 mps 754 mmHg 79%
    06:00 +25°C° 0 mm 3 mps 754 mmHg 78%
    07:00 +26°C° 0 mm 3 mps 753 mmHg 76%
    08:00 +28°C° 0 mm 3 mps 753 mmHg 73%
    09:00 +29°C° 0 mm 3 mps 753 mmHg 70%
    10:00 +30°C° 0 mm 3 mps 753 mmHg 67%
    11:00 +31°C° 0.4 mm 3 mps 752 mmHg 66%
    12:00 +31°C° 0.4 mm 3 mps 752 mmHg 65%
    13:00 +33°C° 0.4 mm 4 mps 751 mmHg 64%
    14:00 +32°C° 1.9 mm 4 mps 751 mmHg 66%
    15:00 +30°C° 1.9 mm 5 mps 751 mmHg 68%
    16:00 +29°C° 1.9 mm 6 mps 750 mmHg 70%
    17:00 +27°C° 0 mm 6 mps 750 mmHg 69%
    18:00 +26°C° 0 mm 6 mps 751 mmHg 68%
    19:00 +24°C° 0 mm 6 mps 751 mmHg 67%
    20:00 +22°C° 0 mm 6 mps 751 mmHg 67%
    21:00 +21°C° 0 mm 6 mps 751 mmHg 66%
    22:00 +20°C° 0 mm 6 mps 752 mmHg 65%
    23:00 +19°C° 0 mm 5 mps 752 mmHg 68%

    28 June, Friday

    Time Temperature Precipitation Wind Pressure Humidity
    00:00 +17°C° 0 mm 5 mps 752 mmHg 71%
    01:00 +18°C° 0 mm 4 mps 752 mmHg 74%
    02:00 +17°C° 0 mm 4 mps 752 mmHg 76%
    03:00 +17°C° 0 mm 3 mps 752 mmHg 78%
    04:00 +16°C° 0 mm 3 mps 752 mmHg 81%
    05:00 +18°C° 0 mm 4 mps 752 mmHg 78%
    06:00 +19°C° 0 mm 5 mps 752 mmHg 76%
    07:00 +20°C° 0 mm 5 mps 752 mmHg 73%
    08:00 +21°C° 0 mm 5 mps 753 mmHg 69%
    09:00 +22°C° 0 mm 5 mps 753 mmHg 64%
    10:00 +23°C° 0 mm 5 mps 753 mmHg 59%
    11:00 +23°C° 0 mm 5 mps 753 mmHg 56%
    12:00 +25°C° 0 mm 5 mps 753 mmHg 53%
    13:00 +25°C° 0 mm 4 mps 753 mmHg 50%
    14:00 +25°C° 0 mm 4 mps 752 mmHg 50%
    15:00 +25°C° 0 mm 3 mps 752 mmHg 51%
    16:00 +25°C° 0 mm 3 mps 752 mmHg 52%
    17:00 +24°C° 0 mm 2 mps 752 mmHg 58%
    18:00 +23°C° 0 mm 2 mps 752 mmHg 64%
    19:00 +21°C° 0 mm 2 mps 753 mmHg 70%
    20:00 +20°C° 0 mm 2 mps 753 mmHg 72%
    21:00 +19°C° 0 mm 2 mps 753 mmHg 73%
    22:00 +19°C° 0 mm 2 mps 754 mmHg 74%
    23:00 +18°C° 0 mm 3 mps 754 mmHg 75%

    29 June, Saturday

    Time Temperature Precipitation Wind Pressure Humidity
    00:00 +18°C° 0 mm 3 mps 754 mmHg 76%
    01:00 +17°C° 0 mm 4 mps 754 mmHg 77%
    02:00 +15°C° 0 mm 4 mps 754 mmHg 73%
    03:00 +14°C° 0 mm 4 mps 754 mmHg 69%
    04:00 +14°C° 0 mm 5 mps 754 mmHg 65%
    05:00 +14°C° 0 mm 5 mps 755 mmHg 64%
    06:00 +15°C° 0 mm 6 mps 755 mmHg 63%
    07:00 +16°C° 0 mm 7 mps 755 mmHg 61%
    08:00 +17°C° 0 mm 7 mps 755 mmHg 58%
    09:00 +18°C° 0 mm 7 mps 755 mmHg 55%
    10:00 +20°C° 0 mm 7 mps 755 mmHg 52%
    11:00 +21°C° 0 mm 7 mps 755 mmHg 50%
    12:00 +21°C° 0 mm 6 mps 755 mmHg 49%
    13:00 +22°C° 0 mm 6 mps 755 mmHg 48%
    14:00 +22°C° 0 mm 6 mps 755 mmHg 49%
    15:00 +22°C° 0 mm 5 mps 754 mmHg 51%
    16:00 +22°C° 0 mm 5 mps 754 mmHg 52%
    17:00 +21°C° 0 mm 4 mps 754 mmHg 58%
    18:00 +20°C° 0 mm 3 mps 755 mmHg 64%
    19:00 +19°C° 0 mm 2 mps 755 mmHg 70%
    20:00 +20°C° 0 mm 1 mps 755 mmHg 70%
    21:00 +19°C° 0 mm 1 mps 755 mmHg 69%
    22:00 +19°C° 0 mm 1 mps 755 mmHg 69%
    23:00 +18°C° 0 mm 1 mps 756 mmHg 71%

    30 June, Sunday

    Time Temperature Precipitation Wind Pressure Humidity
    00:00 +17°C° 0 mm 2 mps 756 mmHg 72%
    01:00 +16°C° 0 mm 2 mps 756 mmHg 73%
    02:00 +16°C° 0 mm 2 mps 756 mmHg 76%
    03:00 +15°C° 0 mm 2 mps 756 mmHg 78%
    04:00 +15°C° 0 mm 1 mps 756 mmHg 80%
    05:00 +16°C° 0 mm 2 mps 756 mmHg 76%
    06:00 +18°C° 0 mm 2 mps 756 mmHg 72%
    07:00 +20°C° 0 mm 2 mps 756 mmHg 68%
    08:00 +21°C° 0 mm 2 mps 756 mmHg 63%
    09:00 +22°C° 0 mm 3 mps 756 mmHg 59%
    10:00 +25°C° 0 mm 3 mps 756 mmHg 54%
    11:00 +25°C° 0 mm 3 mps 756 mmHg 53%
    12:00 +26°C° 0 mm 3 mps 756 mmHg 51%
    13:00 +26°C° 0 mm 2 mps 755 mmHg 49%
    14:00 +26°C° 0 mm 2 mps 755 mmHg 49%
    15:00 +27°C° 0 mm 2 mps 755 mmHg 49%
    16:00 +27°C° 0 mm 2 mps 755 mmHg 49%
    17:00 +25°C° 0 mm 1 mps 755 mmHg 54%
    18:00 +24°C° 0 mm 1 mps 755 mmHg 60%
    19:00 +23°C° 0 mm 1 mps 755 mmHg 65%
    20:00 +22°C° 0 mm 1 mps 755 mmHg 67%
    21:00 +21°C° 0 mm 1 mps 755 mmHg 69%
    22:00 +20°C° 0 mm 1 mps 755 mmHg 71%
    23:00 +19°C° 0 mm 1 mps 754 mmHg 73%
    Show more